Date,TemperatureHighF,TemperatureAvgF,TemperatureLowF,DewpointHighF,DewpointAvgF,DewpointLowF,HumidityHigh,HumidityAvg,HumidityLow,PressureMaxIn,PressureMinIn,WindSpeedMaxMPH,WindSpeedAvgMPH,GustSpeedMaxMPH,PrecipitationSumIn
2013-1-1,28,23,17,23,17,11,82,78,73,28.35,28.27,0,0,0,0.00
2013-1-2,20,17,14,12,10,7,77,74,69,28.50,28.34,0,0,0,0.00
2013-1-3,25,17,5,18,10,0,80,75,67,28.48,28.36,0,0,0,0.00
2013-1-4,29,24,22,18,16,14,79,71,63,28.49,28.34,8,1,12,0.00
2013-1-5,28,24,22,20,18,15,77,75,70,28.65,28.42,4,0,11,0.00
2013-1-6,33,30,27,26,24,20,82,78,73,28.47,28.26,3,0,9,0.00
2013-1-7,30,27,20,25,21,15,82,78,72,28.73,28.48,3,0,7,0.00
2013-1-8,44,27,17,27,19,12,82,73,52,28.64,28.55,4,0,5,0.13
2013-1-9,45,34,26,35,26,20,80,73,64,28.75,28.45,11,2,13,0.45
2013-1-10,40,30,20,28,23,16,82,74,58,28.90,28.64,4,0,7,0.02
2013-1-11,43,40,38,38,32,24,85,74,55,28.64,28.27,7,2,11,0.36
2013-1-12,52,47,42,48,43,38,85,85,84,28.40,28.31,5,0,7,0.01
2013-1-13,64,56,50,55,50,46,85,80,71,28.31,28.18,6,1,13,0.05
2013-1-14,54,30,25,49,24,18,84,76,70,28.69,28.20,7,2,13,0.09
2013-1-15,30,26,23,19,17,16,77,70,63,28.69,28.42,5,1,6,0.00
2013-1-16,33,29,27,26,22,18,81,76,70,28.41,28.17,7,1,13,0.00
2013-1-17,31,29,21,24,21,16,80,74,66,28.45,28.27,11,2,13,0.00
2013-1-18,28,20,13,16,11,5,79,67,61,28.74,28.45,9,2,15,0.00
2013-1-19,48,38,28,30,23,16,62,55,44,28.46,28.07,9,3,16,0.00
2013-1-20,43,26,18,30,16,8,75,64,50,28.42,28.00,11,3,25,0.00
2013-1-21,19,15,9,11,7,1,77,71,61,28.38,28.19,7,1,11,0.00
2013-1-22,9,4,1,3,-4,-8,76,70,64,28.48,28.27,10,2,15,0.00
2013-1-23,11,5,-1,2,-3,-7,77,71,62,28.51,28.35,6,1,9,0.00
2013-1-24,16,6,-3,5,-2,-9,78,70,54,28.79,28.33,9,1,13,0.00
2013-1-25,14,8,0,7,1,-6,78,75,70,28.77,28.31,3,0,8,0.00
2013-1-26,23,17,11,15,11,5,79,76,71,28.70,28.35,4,1,7,0.00
2013-1-27,30,22,14,17,13,9,80,69,57,28.81,28.63,3,0,5,0.00
2013-1-28,43,34,24,39,30,18,85,83,74,28.62,28.27,8,2,11,0.17
2013-1-29,51,45,36,47,41,31,86,85,84,28.37,28.13,2,0,7,0.13
2013-1-30,59,54,49,51,48,43,86,81,72,28.12,27.54,10,2,18,0.58
2013-1-31,48,24,16,42,16,8,82,73,64,28.11,27.55,19,4,27,0.69
2013-2-1,16,12,7,9,5,-1,79,73,65,28.55,28.09,10,2,14,0.00
2013-2-2,17,12,7,11,6,0,80,75,69,28.54,28.24,5,1,9,0.00
2013-2-3,21,16,13,15,10,7,81,76,65,28.25,28.11,3,0,9,0.00
2013-2-4,22,17,12,14,10,5,81,76,65,28.31,28.18,2,0,8,0.00
2013-2-5,27,21,16,19,15,11,81,78,71,28.23,28.13,0,0,0,0.00
2013-2-6,28,20,8,19,13,2,82,73,55,28.62,28.22,3,0,7,0.07
2013-2-7,44,24,6,28,15,1,79,69,52,28.62,28.31,6,1,11,0.18
2013-2-8,33,26,15,28,20,10,83,78,73,28.42,28.09,12,3,13,0.03
2013-2-9,27,17,7,15,9,1,79,73,58,28.67,28.43,8,2,13,0.04
2013-2-10,47,24,3,21,11,-2,79,59,29,28.65,28.29,11,1,11,0.19
2013-2-11,49,37,31,40,29,20,85,74,52,28.27,27.98,11,3,19,0.11
2013-2-12,30,27,19,22,20,14,81,74,71,28.35,28.19,8,2,13,0.11
2013-2-13,38,28,17,26,20,12,82,74,62,28.24,28.02,5,1,8,0.00
2013-2-14,35,28,20,29,23,15,84,81,78,28.24,28.15,3,1,10,0.05
2013-2-15,34,29,21,29,21,14,79,72,67,28.36,28.18,6,2,17,0.01
2013-2-16,26,18,6,16,9,0,78,69,56,28.36,28.22,4,1,9,0.01
2013-2-17,18,12,6,10,5,0,80,73,64,28.50,28.22,11,2,14,0.00
2013-2-18,36,20,1,25,10,-5,79,65,48,28.56,28.20,6,1,9,0.00
2013-2-19,38,30,16,33,24,8,83,76,64,28.20,27.96,15,2,21,0.20
2013-2-20,18,15,13,10,8,6,78,74,67,28.44,28.20,9,2,19,0.20
2013-2-21,22,15,8,12,8,3,80,75,66,28.64,28.42,9,1,13,0.00
2013-2-22,29,23,8,24,17,3,83,78,68,28.60,28.32,11,3,14,0.00
2013-2-23,35,30,25,30,25,19,83,81,77,28.33,28.19,3,1,6,0.06
2013-2-24,27,25,24,20,18,16,79,74,69,28.43,28.19,5,1,9,0.06
2013-2-25,38,28,18,24,19,13,82,71,56,28.53,28.42,4,1,6,0.00
2013-2-26,36,31,23,28,23,17,83,74,65,28.44,27.96,8,4,14,0.52
2013-2-27,37,33,31,32,29,26,84,82,80,27.98,27.91,7,2,10,0.39
2013-2-28,34,30,29,28,25,24,83,81,79,28.11,27.91,7,1,7,0.04
2013-3-1,28,24,21,23,19,16,82,80,77,28.28,28.11,10,2,10,0.04
2013-3-2,22,20,20,16,15,14,81,79,75,28.26,28.21,7,2,8,0.00
2013-3-3,24,20,18,16,14,12,80,77,72,28.27,28.20,11,2,16,0.00
2013-3-4,28,20,11,18,13,6,80,74,63,28.39,28.27,6,1,12,0.00
2013-3-5,38,26,13,26,18,8,80,71,59,28.40,28.10,6,2,9,0.04
2013-3-6,38,33,28,26,24,20,75,69,61,28.43,28.10,6,2,8,0.03
2013-3-7,34,31,28,27,25,23,82,78,75,28.58,28.42,9,2,10,0.03
2013-3-8,38,30,23,25,22,17,81,72,59,28.71,28.58,9,3,16,0.00
2013-3-9,53,34,20,29,22,15,83,63,31,28.71,28.50,3,0,5,0.00
2013-3-10,66,50,40,35,26,19,51,39,30,28.51,28.34,6,1,12,0.00
2013-3-11,59,50,44,41,30,25,83,47,34,28.35,28.03,6,2,13,0.41
2013-3-12,44,35,30,39,29,23,83,78,72,28.28,28.09,5,1,11,0.02
2013-3-13,31,27,22,22,20,15,81,75,65,28.36,28.21,8,2,17,0.02
2013-3-14,28,23,20,17,14,12,78,68,60,28.46,28.36,10,3,16,0.00
2013-3-15,35,28,19,28,22,13,83,76,70,28.40,28.16,7,1,12,0.00
2013-3-16,31,28,22,26,23,16,83,81,78,28.30,28.02,4,1,6,0.01
2013-3-17,32,24,16,20,16,10,81,73,58,28.54,28.31,4,1,6,0.07
2013-3-18,31,26,19,27,20,12,83,77,69,28.52,28.03,12,4,17,0.07
2013-3-19,32,28,22,28,22,16,84,77,66,28.21,28.02,10,2,15,0.00
2013-3-20,31,24,16,20,15,9,80,71,55,28.23,28.16,7,2,13,0.04
2013-3-21,25,19,14,17,12,8,80,73,62,28.18,28.11,8,1,12,0.04
2013-3-22,26,24,21,18,17,15,81,76,70,28.32,28.15,8,1,9,0.00
2013-3-23,34,26,18,22,18,13,78,72,61,28.37,28.29,5,1,9,0.00
2013-3-24,37,27,15,22,18,10,81,68,54,28.35,27.92,5,1,9,0.03
2013-3-25,34,31,28,28,25,21,83,78,60,28.08,27.86,6,1,9,0.08
2013-3-26,42,32,26,30,25,20,82,75,61,28.36,28.09,9,2,11,0.10
2013-3-27,37,32,29,27,25,23,82,75,63,28.44,28.34,7,2,12,0.10
2013-3-28,33,31,28,28,26,23,82,81,78,28.56,28.40,6,1,7,0.11
2013-3-29,46,36,28,32,26,21,82,70,52,28.56,28.49,6,1,11,0.01
2013-3-30,52,36,21,28,22,16,81,58,32,28.56,28.37,5,1,8,0.01
2013-3-31,49,41,36,38,30,20,84,67,50,28.36,28.03,5,1,10,0.18
2013-4-1,42,33,26,37,22,13,84,65,46,28.32,27.99,10,3,17,0.23
2013-4-2,34,26,21,20,15,11,78,64,48,28.47,28.32,9,2,17,0.00
2013-4-3,32,26,19,18,15,11,73,64,53,28.72,28.47,14,2,16,0.00
2013-4-4,54,32,13,16,10,5,79,48,16,28.68,28.30,5,1,10,0.00
2013-4-5,44,34,25,30,20,9,70,59,36,28.49,28.25,9,2,17,0.00
2013-4-6,53,36,18,22,14,11,82,48,20,28.60,28.36,6,1,10,0.00
2013-4-7,68,55,42,46,34,14,73,46,28,28.36,28.19,11,3,17,0.00
2013-4-8,68,50,29,51,40,25,84,69,52,28.42,28.23,5,1,13,0.02
2013-4-9,72,59,42,55,48,37,82,68,55,28.47,28.24,5,1,15,0.04
2013-4-10,66,57,46,59,50,42,85,79,67,28.30,28.18,5,1,12,1.20
2013-4-11,47,44,42,43,40,37,85,84,82,28.27,28.05,6,2,11,0.01
2013-4-12,56,47,37,52,41,30,86,81,73,28.18,27.87,8,3,15,1.01
2013-4-13,42,38,32,33,30,26,79,74,65,28.33,28.17,8,2,14,0.03
2013-4-14,46,37,28,35,29,23,81,72,63,28.48,28.34,4,0,9,0.03
2013-4-15,69,55,38,52,43,31,74,64,48,28.46,28.36,6,2,14,0.00
2013-4-16,67,55,48,58,48,41,82,77,69,28.55,28.39,7,2,12,0.05
2013-4-17,68,54,42,44,37,31,78,56,26,28.63,28.45,6,1,7,0.05
2013-4-18,79,67,56,64,56,42,77,67,56,28.48,28.13,7,3,14,0.00
2013-4-19,68,55,38,56,46,28,82,71,66,28.17,27.83,9,2,15,0.42
2013-4-20,39,34,25,28,24,18,77,68,59,28.71,28.17,14,3,16,0.02
2013-4-21,51,34,19,26,20,14,82,61,29,28.92,28.72,4,1,7,0.02
2013-4-22,62,48,36,34,26,20,61,44,29,28.81,28.63,5,2,9,0.00
2013-4-23,68,52,36,40,32,23,69,49,28,28.64,28.31,5,2,9,0.00
2013-4-24,56,46,33,50,39,28,84,76,48,28.46,28.05,10,2,17,0.68
2013-4-25,52,39,30,36,30,25,83,71,45,28.66,28.46,7,2,13,0.04
2013-4-26,58,41,26,36,27,21,84,63,29,28.79,28.66,5,1,7,0.04
2013-4-27,72,51,28,37,29,22,79,48,21,28.74,28.54,5,0,8,0.00
2013-4-28,60,52,47,46,42,31,83,69,39,28.54,28.33,8,2,12,0.42
2013-4-29,57,51,47,51,46,42,84,82,77,28.39,28.31,4,1,6,0.28
2013-4-30,71,59,52,57,50,47,84,74,59,28.56,28.39,6,2,9,0.28
2013-5-1,77,63,51,57,46,32,79,57,32,28.68,28.56,6,2,8,0.00
2013-5-2,76,63,49,41,31,24,57,32,16,28.73,28.59,8,2,10,0.00
2013-5-3,75,62,51,43,38,27,62,42,28,28.64,28.53,8,2,12,0.00
2013-5-4,71,59,46,41,38,33,72,48,28,28.59,28.47,8,2,11,0.00
2013-5-5,74,59,39,45,32,17,82,43,14,28.53,28.41,6,2,11,0.00
2013-5-6,74,59,45,49,39,21,76,50,27,28.48,28.37,5,2,9,0.00
2013-5-7,73,54,50,100,33,-100,81,58,41,28.44,28.34,6,-113,7,0.00
2013-5-8,67,43,54,56,8,-100,84,53,62,28.38,28.30,3,-290,5,0.10
2013-5-9,72,53,50,57,33,-100,85,64,47,28.36,28.27,6,-114,10,0.02
2013-5-10,72,53,48,60,35,-100,84,67,65,28.36,28.15,5,-114,17,0.40
2013-5-11,58,38,43,53,13,-100,84,63,75,28.19,28.10,6,-207,8,0.40
2013-5-12,48,36,33,42,17,-100,82,64,57,28.37,28.14,7,-112,16,0.06
2013-5-13,44,32,28,29,12,-100,79,59,54,28.50,28.36,4,-105,10,0.06
2013-5-14,49,35,25,38,19,-100,82,67,51,28.51,28.28,3,-93,8,0.20
2013-5-15,80,50,43,63,19,-100,81,52,42,28.27,28.09,10,-213,15,0.03
2013-5-16,75,56,47,53,28,-100,84,48,27,28.37,28.15,8,-114,15,0.03
2013-5-17,74,53,41,47,25,-100,83,48,29,28.52,28.37,5,-114,7,0.00
2013-5-18,80,58,54,56,32,-100,76,49,32,28.54,28.44,5,-115,7,0.00
2013-5-19,78,59,58,64,40,-100,80,64,62,28.50,28.37,5,-114,8,0.00
2013-5-20,85,64,58,70,44,-100,84,64,57,28.43,28.28,3,-114,8,0.00
2013-5-21,86,66,63,72,45,-100,85,62,51,28.33,28.20,9,-114,11,0.00
2013-5-22,84,65,64,68,46,-100,84,63,54,28.25,28.11,8,-104,16,0.01
2013-5-23,72,54,45,63,37,-100,83,70,65,28.26,28.14,6,-120,12,0.34
2013-5-24,44,34,34,39,16,-100,83,68,70,28.59,28.27,7,-123,10,0.36
2013-5-25,55,40,32,40,20,-100,83,60,51,28.62,28.56,7,-103,13,0.00
2013-5-26,61,44,32,41,23,-100,83,56,37,28.61,28.55,9,-82,13,0.00
2013-5-27,68,48,32,44,22,-100,83,50,30,28.63,28.49,3,-105,8,0.00
2013-5-28,75,51,49,66,28,-100,84,65,72,28.50,28.31,5,-176,10,0.28
2013-5-29,82,73,63,69,63,58,84,73,62,28.45,28.39,7,2,14,0.03
2013-5-30,85,66,60,69,49,-100,84,66,55,28.55,28.46,4,-84,8,0.03
2013-5-31,87,67,59,70,48,-100,85,64,56,28.49,28.36,4,-93,10,0.00
2013-6-1,84,66,63,70,47,-100,83,65,64,28.40,28.18,8,-93,13,0.00
2013-6-2,75,61,60,64,45,-100,84,68,63,28.27,28.14,8,-94,16,0.16
2013-6-3,63,48,42,53,29,-100,82,64,50,28.43,28.27,4,-104,7,0.16
2013-6-4,70,49,37,50,30,-100,84,61,42,28.53,28.43,3,-84,7,0.00
2013-6-5,80,57,40,57,35,-100,82,57,35,28.53,28.33,4,-83,8,0.00
2013-6-6,65,54,60,56,38,-100,84,72,70,28.34,28.16,3,-108,6,1.27
2013-6-7,61,43,53,55,14,-100,84,62,81,28.22,28.16,2,-249,6,1.27
2013-6-8,66,51,50,55,34,-100,85,69,68,28.48,28.23,3,-117,8,0.00
2013-6-9,75,58,46,61,40,-100,87,65,56,28.55,28.44,2,-84,4,0.00
2013-6-10,71,59,61,65,44,-100,84,73,72,28.43,28.15,4,-103,7,0.25
2013-6-11,66,56,57,60,39,-100,85,72,78,28.27,28.13,5,-116,10,0.02
2013-6-12,76,61,55,67,46,-100,85,72,68,28.30,28.17,3,-84,5,0.01
2013-6-13,65,59,54,61,54,49,84,83,79,28.18,27.88,6,2,14,0.17
2013-6-14,71,57,53,61,41,-100,84,70,65,28.42,28.18,6,-82,9,0.17
2013-6-15,74,57,48,56,38,-100,84,62,42,28.48,28.37,3,-83,7,0.00
2013-6-16,75,60,59,65,44,-100,83,70,68,28.38,28.21,8,-93,17,0.00
2013-6-17,79,64,61,65,50,-100,85,69,54,28.33,28.28,5,-62,11,0.07
2013-6-18,74,59,53,62,41,-100,84,67,66,28.38,28.27,5,-95,10,0.02
2013-6-19,74,54,43,58,34,-100,84,60,45,28.54,28.38,4,-94,6,0.02
2013-6-20,80,58,44,58,36,-100,84,58,36,28.60,28.54,4,-93,6,0.00
2013-6-21,81,59,49,64,38,-100,84,62,45,28.64,28.55,2,-112,6,0.00
2013-6-22,86,66,56,71,48,-100,85,65,57,28.57,28.45,4,-94,10,0.00
2013-6-23,87,71,65,72,54,-100,84,65,54,28.52,28.42,6,-75,12,0.00
2013-6-24,85,69,64,69,50,-100,83,63,54,28.50,28.37,6,-87,10,0.00
2013-6-25,85,63,64,73,45,-100,84,69,65,28.41,28.27,5,-119,14,0.58
2013-6-26,82,71,65,70,62,-100,84,75,66,28.29,0.00,3,-15,8,0.01
2013-6-27,67,54,62,63,34,-100,85,70,83,28.21,28.05,3,-166,6,1.59
2013-6-28,74,61,60,65,48,-100,85,75,69,28.05,27.90,4,-73,7,0.13
2013-6-29,73,57,60,65,40,-100,85,72,73,28.10,27.91,3,-114,8,0.56
2013-6-30,77,59,59,66,42,-100,85,72,69,28.27,28.09,3,-116,7,0.44
2013-7-1,72,60,60,64,48,-100,85,77,74,28.38,28.25,3,-72,4,0.83
2013-7-2,82,65,62,71,49,-100,84,71,66,28.46,28.34,3,-86,7,0.83
2013-7-3,86,69,65,73,54,-100,85,71,61,28.55,28.45,3,-76,8,0.00
2013-7-4,81,65,68,71,47,-100,84,69,65,28.58,28.52,4,-114,9,0.02
2013-7-5,81,68,66,70,54,-100,85,73,68,28.54,28.47,5,-65,11,0.33
2013-7-6,84,63,65,72,44,-100,85,70,67,28.55,28.43,3,-129,7,0.15
2013-7-7,76,63,66,67,45,-100,85,70,70,28.48,28.38,3,-114,8,0.16
2013-7-8,82,63,62,70,47,-100,84,71,66,28.49,28.42,3,-98,6,0.01
2013-7-9,82,64,66,73,47,-100,84,72,72,28.45,28.33,2,-115,6,0.09
2013-7-10,82,60,63,74,40,-100,84,70,76,28.35,28.20,4,-145,11,0.62
2013-7-11,73,47,56,61,12,-100,84,52,60,28.41,28.29,4,-282,8,0.62
2013-7-12,76,56,54,64,36,-100,84,66,64,28.53,28.40,5,-121,8,0.00
2013-7-13,77,62,55,67,46,-100,84,70,69,28.63,28.51,4,-93,6,0.00
2013-7-14,89,67,61,75,49,-100,85,67,61,28.68,28.62,4,-104,6,0.00
2013-7-15,90,68,64,76,48,-100,85,67,65,28.72,28.63,5,-122,7,0.00
2013-7-16,89,69,66,78,50,-100,85,67,63,28.70,28.62,3,-114,7,0.00
2013-7-17,88,69,65,77,55,-100,85,75,68,28.67,28.54,5,-84,6,0.92
2013-7-18,89,72,68,77,56,-100,85,71,66,28.57,28.41,5,-83,8,0.93
2013-7-19,87,72,69,76,56,-100,85,69,65,28.42,28.23,7,-83,11,0.00
2013-7-20,77,69,65,69,58,-100,84,76,72,28.31,28.19,4,-38,12,0.03
2013-7-21,83,64,62,71,46,-100,85,67,60,28.37,28.31,3,-104,5,0.01
2013-7-22,80,63,60,71,49,-100,84,73,70,28.36,28.17,4,-84,4,0.22
2013-7-23,80,54,62,69,26,-100,88,61,66,28.17,28.08,10,-227,14,0.23
2013-7-24,68,53,49,58,34,-100,84,67,63,28.40,28.15,5,-114,6,0.00
2013-7-25,73,52,44,58,32,-100,84,63,53,28.48,28.40,4,-119,6,0.00
2013-7-26,79,57,48,63,34,-100,84,61,49,28.48,28.38,3,-127,8,0.00
2013-7-27,72,57,55,64,40,-100,83,71,74,28.39,28.23,4,-115,5,0.01
2013-7-28,69,53,53,59,31,-100,84,63,61,28.39,28.22,5,-150,11,0.06
2013-7-29,71,53,51,59,33,-100,83,65,58,28.56,28.39,5,-118,11,0.00
2013-7-30,76,55,48,61,34,-100,84,64,56,28.61,28.53,4,-130,6,0.00
2013-7-31,76,59,51,65,41,-100,84,67,62,28.55,28.33,2,-104,5,0.00
2013-8-1,76,54,58,66,29,-100,84,63,66,28.32,28.23,4,-190,10,0.00
2013-8-2,73,58,53,61,41,-100,84,67,61,28.34,28.28,7,-97,14,0.04
2013-8-3,74,58,54,62,35,-100,84,61,52,28.38,28.28,5,-136,9,0.04
2013-8-4,70,53,53,58,33,-100,84,66,61,28.47,28.37,6,-127,8,0.07
2013-8-5,70,51,46,55,30,-100,84,63,53,28.50,28.41,3,-131,5,0.00
2013-8-6,79,58,49,62,37,-100,83,62,49,28.43,28.37,4,-115,7,0.00
2013-8-7,80,60,60,68,41,-100,84,69,68,28.38,28.30,6,-125,7,0.08
2013-8-8,77,62,63,69,45,-100,85,73,78,28.38,28.32,1,-118,4,0.06
2013-8-9,76,58,55,66,38,-100,85,68,64,28.39,28.28,7,-147,8,0.16
2013-8-10,76,56,53,62,35,-100,84,63,55,28.50,28.39,5,-126,8,0.01
2013-8-11,76,58,55,62,37,-100,84,63,55,28.52,28.43,4,-114,6,0.00
2013-8-12,74,54,55,62,34,-100,84,69,66,28.45,28.26,4,-147,6,0.07
2013-8-13,68,60,48,62,52,-100,85,76,68,28.33,28.19,5,-13,11,0.01
2013-8-14,66,48,47,53,29,-100,83,65,59,28.50,28.32,7,-128,10,0.00
2013-8-15,71,50,42,56,28,-100,84,63,58,28.55,28.48,4,-141,7,0.01
2013-8-16,76,52,44,57,28,-100,84,59,44,28.57,28.51,2,-147,5,0.00
2013-8-17,77,54,49,62,31,-100,84,61,55,28.65,28.57,3,-147,5,0.00
2013-8-18,75,57,54,63,37,-100,84,67,66,28.61,28.52,4,-125,7,0.00
2013-8-19,78,54,56,67,32,-100,84,65,67,28.53,28.44,2,-172,5,0.10
2013-8-20,80,58,51,67,38,-100,85,65,59,28.56,28.48,3,-126,7,0.01
2013-8-21,83,58,54,67,35,-100,85,62,56,28.59,28.45,2,-149,5,0.00
2013-8-22,80,61,61,70,41,-100,84,67,68,28.47,28.36,6,-134,9,0.00
2013-8-23,79,59,54,61,33,-100,84,56,41,28.56,28.39,5,-146,9,0.00
2013-8-24,80,53,48,58,25,-100,84,54,33,28.70,28.57,2,-168,5,0.00
2013-8-25,80,56,49,64,29,-100,84,57,44,28.73,28.59,4,-168,7,0.00
2013-8-26,82,59,59,69,34,-100,83,61,60,28.61,28.39,12,-169,12,0.19
2013-8-27,81,60,66,73,37,-100,85,66,73,28.38,28.30,2,-178,9,0.05
2013-8-28,79,58,67,71,37,-100,85,69,75,28.34,28.23,2,-170,5,0.50
2013-8-29,86,59,64,71,34,-100,85,61,55,28.44,28.34,3,-187,4,0.01
2013-8-30,83,60,59,71,37,-100,85,64,64,28.42,28.22,5,-168,9,0.01
2013-8-31,82,69,67,72,56,-100,84,73,69,28.24,28.17,5,-62,7,0.00
2013-9-1,83,67,64,72,55,-100,85,76,68,28.23,28.16,2,-62,7,0.01
2013-9-2,79,61,60,70,43,-100,85,71,71,28.23,28.15,5,-124,9,0.27
2013-9-3,61,54,54,55,41,-100,84,76,77,28.40,28.22,5,-74,7,0.00
2013-9-4,75,55,49,61,36,-100,84,66,60,28.46,28.40,6,-114,10,0.01
2013-9-5,68,54,44,55,34,-100,82,61,47,28.58,28.40,7,-94,10,0.00
2013-9-6,71,49,37,50,28,-100,84,60,32,28.65,28.50,3,-93,5,0.00
2013-9-7,74,55,42,60,40,-100,84,69,51,28.50,28.32,3,-73,9,0.02
2013-9-8,71,56,48,61,37,-100,84,68,60,28.47,28.29,4,-114,9,0.01
2013-9-9,73,55,44,62,43,-100,84,75,69,28.50,28.41,4,-62,7,0.26
2013-9-10,89,68,63,76,51,-100,85,70,66,28.50,28.40,6,-106,11,0.01
2013-9-11,88,70,70,76,54,-100,85,70,66,28.50,28.38,8,-93,10,0.00
2013-9-12,72,60,55,66,47,-100,84,76,79,28.39,28.18,4,-84,8,0.18
2013-9-13,58,49,46,51,36,-100,84,74,68,28.40,28.19,8,-72,13,0.03
2013-9-14,63,46,40,47,28,-100,83,64,43,28.52,28.39,6,-93,8,0.03
2013-9-15,65,47,37,52,30,-100,84,67,55,28.55,28.43,4,-105,6,0.02
2013-9-16,65,48,40,55,31,-100,84,69,69,28.68,28.46,9,-113,10,0.05
2013-9-17,69,45,34,46,25,-100,83,61,32,28.78,28.63,4,-93,5,0.00
2013-9-18,73,49,37,58,28,-100,83,63,46,28.64,28.49,4,-116,9,0.00
2013-9-19,76,54,48,61,35,-100,84,66,57,28.52,28.41,4,-117,6,0.00
2013-9-20,76,58,54,67,42,-100,84,72,74,28.42,28.20,6,-107,9,0.00
2013-9-21,66,50,50,61,29,-100,84,70,83,28.20,28.05,5,-166,7,1.27
2013-9-22,55,45,48,47,28,-100,84,70,71,28.39,28.16,8,-114,9,0.01
2013-9-23,57,43,37,46,26,-100,83,68,66,28.50,28.38,3,-106,6,0.00
2013-9-24,70,44,33,51,25,-100,84,65,44,28.50,28.36,3,-115,5,0.00
2013-9-25,74,47,39,53,24,-100,84,61,30,28.38,28.29,2,-135,5,0.00
2013-9-26,73,50,41,53,27,-100,84,60,31,28.49,28.35,4,-115,7,0.00
2013-9-27,72,49,43,55,27,-100,84,63,50,28.59,28.49,2,-135,4,0.00
2013-9-28,72,50,44,57,28,-100,84,63,56,28.64,28.52,5,-136,7,0.00
2013-9-29,72,51,48,59,30,-100,82,64,62,28.52,28.38,5,-139,6,0.00
2013-9-30,70,52,51,60,32,-100,84,68,70,28.41,28.36,3,-136,8,0.00
2013-10-1,74,54,53,60,36,-100,87,68,61,28.44,28.37,7,-118,8,0.00
2013-10-2,75,54,53,64,34,-100,84,68,65,28.47,28.38,3,-136,8,0.00
2013-10-3,77,53,44,67,35,-100,84,70,71,28.49,28.39,7,-135,8,0.03
2013-10-4,78,55,61,67,31,-100,85,66,68,28.46,28.40,4,-186,8,0.02
2013-10-5,78,58,59,69,40,-100,85,70,72,28.46,28.36,3,-135,7,0.01
2013-10-6,81,61,64,69,39,-100,85,65,66,28.36,28.13,6,-145,11,0.00
2013-10-7,69,45,46,59,20,-100,83,61,67,28.46,28.07,8,-175,16,0.09
2013-10-8,66,43,40,49,21,-100,84,62,45,28.66,28.46,4,-145,6,0.03
2013-10-9,68,44,36,50,19,-100,84,57,33,28.72,28.61,4,-147,6,0.00
2013-10-10,71,45,36,48,19,-100,83,55,25,28.62,28.48,2,-138,4,0.00
2013-10-11,74,48,42,49,22,-100,83,53,24,28.50,28.43,3,-126,7,0.00
2013-10-12,76,52,41,60,28,-100,80,59,46,28.54,28.46,3,-135,7,0.00
2013-10-13,66,50,55,57,27,-100,84,65,70,28.63,28.53,5,-166,5,0.12
2013-10-14,65,42,46,53,12,-100,84,58,64,28.70,28.60,4,-238,6,0.08
2013-10-15,67,48,41,57,28,-100,83,67,69,28.61,28.34,5,-145,6,0.00
2013-10-16,61,46,49,55,22,-100,84,65,76,28.34,28.19,5,-197,10,0.70
2013-10-17,60,40,42,50,15,-100,84,64,66,28.28,28.08,5,-199,10,0.25
2013-10-18,58,38,44,43,6,-100,81,52,56,28.33,28.19,8,-238,15,0.00
2013-10-19,54,39,40,44,18,-100,82,66,67,28.30,28.06,6,-145,11,0.17
2013-10-20,54,36,35,41,8,-100,82,57,59,28.36,28.24,6,-207,14,0.01
2013-10-21,62,44,38,44,17,-100,79,50,37,28.38,28.19,6,-136,11,0.00
2013-10-22,51,36,33,43,13,-100,82,60,50,28.27,28.18,7,-144,13,0.14
2013-10-23,42,30,31,34,9,-100,82,66,71,28.22,28.10,4,-157,11,0.12
2013-10-24,37,26,32,30,1,-100,82,63,76,28.42,28.21,5,-213,10,0.34
2013-10-25,43,31,32,34,10,-100,82,65,68,28.59,28.42,5,-146,14,0.27
2013-10-26,42,31,30,31,4,-100,79,55,56,28.52,28.19,11,-177,15,0.01
2013-10-27,42,28,30,33,0,-100,82,59,68,28.42,28.26,5,-228,10,0.00
2013-10-28,54,34,28,41,10,-100,82,61,60,28.66,28.42,5,-168,6,0.00
2013-10-29,53,34,29,38,10,-100,83,60,55,28.73,28.61,3,-168,7,0.00
2013-10-30,64,40,32,42,13,-100,82,55,36,28.60,28.45,4,-170,8,0.00
2013-10-31,63,45,47,56,21,-100,84,65,76,28.44,27.81,7,-199,14,0.56
2013-11-1,57,39,47,52,9,-100,83,55,66,28.06,27.70,13,-238,17,0.15
2013-11-2,47,34,37,40,7,-100,82,63,78,28.32,28.02,5,-218,10,0.22
2013-11-3,41,27,24,31,1,-100,81,57,55,28.79,28.32,7,-191,10,0.00
2013-11-4,40,27,21,18,-6,-100,80,42,35,28.88,28.75,6,-186,10,0.00
2013-11-5,51,36,33,32,5,-100,64,43,44,28.81,28.67,3,-166,6,0.00
2013-11-6,65,45,37,52,20,-100,83,57,48,28.66,28.23,8,-169,16,0.17
2013-11-7,56,30,32,51,1,-100,83,58,68,28.41,28.21,15,-230,15,0.39
2013-11-8,38,27,29,30,0,-100,82,60,70,28.58,28.36,8,-197,10,0.13
2013-11-9,51,33,26,37,2,-100,78,47,43,28.58,28.23,5,-209,14,0.03
2013-11-10,48,32,34,38,2,-100,77,53,63,28.55,28.23,9,-217,17,0.00
2013-11-11,42,27,27,31,-4,-100,82,54,59,28.55,28.34,10,-254,13,0.13
2013-11-12,31,26,23,21,19,16,81,74,58,28.72,28.64,10,2,13,0.00
2013-11-13,33,26,22,22,19,16,81,73,59,28.77,28.58,6,1,13,0.04
2013-11-14,46,33,24,21,17,15,70,53,31,28.58,28.46,8,1,13,0.04
2013-11-15,51,40,29,28,19,15,67,46,28,28.50,28.43,6,0,10,0.00
2013-11-16,57,45,31,45,36,25,80,72,62,28.58,28.37,4,1,7,0.00
2013-11-17,57,53,49,52,47,43,83,81,74,28.37,27.84,12,2,19,0.90
2013-11-18,53,40,32,45,29,-100,77,67,62,28.35,27.88,13,-12,21,0.00
2013-11-19,35,30,21,24,22,16,79,71,63,28.72,28.36,6,2,12,0.00
2013-11-20,43,30,18,20,13,8,81,54,27,28.79,28.70,6,1,10,0.00
2013-11-21,40,35,30,33,25,10,80,68,41,28.75,28.56,5,1,6,0.08
2013-11-22,47,41,30,42,36,24,83,82,78,28.56,28.39,6,1,17,0.20
2013-11-23,31,24,16,24,18,10,81,77,68,28.56,28.42,8,2,21,0.00
2013-11-24,19,16,12,13,10,6,79,77,72,28.75,28.57,8,2,11,0.00
2013-11-25,30,20,7,20,10,2,79,66,50,28.73,28.47,5,1,13,0.00
2013-11-26,32,29,26,26,24,20,82,80,78,28.50,28.10,2,0,6,0.00
2013-11-27,30,25,19,25,20,14,82,80,73,28.34,28.04,0,0,0,0.00
2013-11-28,27,20,17,16,14,12,80,75,62,28.69,28.35,0,0,0,0.00
2013-11-29,31,21,14,20,14,9,81,75,61,28.94,28.68,0,0,0,0.01
2013-11-30,32,23,17,22,16,11,80,74,65,28.92,28.53,0,0,0,0.00
2013-12-1,37,30,21,28,23,16,80,75,69,28.53,28.29,1,0,2,0.02
2013-12-2,40,34,27,31,27,22,81,76,69,28.29,28.18,2,0,3,0.19
2013-12-3,42,32,22,33,26,18,82,79,69,28.27,28.22,2,0,3,0.26
2013-12-4,51,43,34,40,36,29,82,76,66,28.34,28.23,4,1,7,0.07
2013-12-5,58,47,33,52,41,28,81,79,76,28.40,28.17,5,1,13,0.05
2013-12-6,33,29,25,28,24,19,82,80,76,28.57,28.37,6,1,8,0.11
2013-12-7,24,20,15,19,13,8,80,74,68,28.85,28.57,7,1,9,0.00
2013-12-8,25,20,14,19,13,9,80,75,66,28.85,28.40,6,2,11,0.00
2013-12-9,34,30,25,29,24,18,82,78,72,28.40,28.24,8,2,13,0.05
2013-12-10,26,21,19,18,10,-100,78,66,52,28.46,28.27,9,-9,12,0.00
2013-12-11,20,18,14,13,10,7,79,73,64,28.61,28.47,8,2,16,0.00
2013-12-12,16,12,6,9,2,-1,79,66,51,28.67,28.48,12,2,15,0.00
2013-12-13,25,19,13,14,9,0,75,64,55,28.56,28.46,9,1,13,0.00
2013-12-14,29,25,20,24,19,13,82,79,74,28.56,27.99,8,2,10,0.00
2013-12-15,30,21,13,25,15,7,82,77,73,28.27,27.94,10,2,16,0.00
2013-12-16,18,13,5,9,6,-1,79,73,65,28.43,28.27,7,1,14,0.00
2013-12-17,24,21,10,19,15,5,81,78,72,28.34,28.22,2,0,3,0.00
2013-12-18,25,23,18,19,16,12,79,76,72,28.44,28.29,3,0,7,0.00
2013-12-19,44,32,17,31,22,11,77,70,60,28.38,28.31,7,1,11,0.51
2013-12-20,49,41,37,44,35,29,84,77,61,28.32,28.19,5,1,9,0.55
2013-12-21,58,51,47,53,47,42,85,84,83,28.20,28.00,5,1,12,1.69
2013-12-22,60,53,38,55,47,33,85,80,68,28.31,27.86,11,3,22,0.37
2013-12-23,39,32,26,34,26,16,82,77,67,28.57,28.30,7,2,14,0.03
2013-12-24,26,19,12,18,12,6,79,75,68,28.75,28.51,7,1,14,0.00
2013-12-25,22,19,11,16,10,5,78,70,62,28.75,28.49,3,0,7,0.00
2013-12-26,28,24,16,22,18,10,81,76,68,28.61,28.39,9,2,11,0.00
2013-12-27,34,27,18,25,20,12,77,74,69,28.62,28.51,4,0,9,0.00
2013-12-28,47,38,31,33,28,23,74,66,58,28.51,28.36,8,1,13,0.08
2013-12-29,38,36,30,33,29,25,83,75,65,28.35,28.02,5,1,13,0.27
2013-12-30,29,18,13,24,10,5,81,74,67,28.49,28.15,9,2,13,0.00
2013-12-31,18,16,12,13,8,4,79,73,63,28.56,28.32,8,1,18,0.00
2014-1-1,21,17,14,15,12,8,79,77,73,28.62,28.41,3,0,5,0.00
2014-1-2,17,13,4,12,7,-2,79,78,76,28.41,28.10,7,2,14,0.00